Find Starlink 31081

NORAD ID: 58632 Int'l Des: 2023-203 Owner: SPXS Country: US Constellation: starlink operational
LEOCIRCULAR

Current View

Loading 3D Globe...

About Starlink 31081

Starlink 31081 (NORAD 58632) is a starlink constellation satellite (v2 mini) launched Dec 23, 2023 by SPXS of US. It operates in LEO, CIRCULAR orbit with a mass of 730.00 kg.

About Starlink 31081

Description loading...

Upcoming Passes

Passes for default location (London). Set your location on the main map for personalized predictions.

Altitude History

Loading altitude history...

Two-Line Element Set

1 58632U 23203Q 26177.96791204 .00000716 00000-0 35538-4 0 9997
2 58632 43.0030 173.4228 0001011 281.0799 78.9939 15.27565548141461
Epoch: Jun 26, 2026 • Age: 18 hours

Current Status

Altitude 482.7 km
Velocity 7.63 km/s
Sub-Earth Point 3.43°N, 170.88°E
Launch Date Dec 23, 2023
Age 2.5 years
Type internet

Technical Details

Classification Payload
Mass 730.00 kg
Dry Mass 700.00 kg
Total Mass 730.00 kg
Length 0.30 m
Diameter 4.10 m
Span 29.00 m
Shape Box + pan
Manufacturer SPXS
Bus Type Starlink V2M
Phase Status In Orbit
Owner/State SPXS/US

Most Searched